QPF
0.02 0.05 0.07 0.05 0.03 0.02 0.03 0.04 0.03 0.01 0.01 0.03 0.03 0.02 0.01 0.01 0.01 0.00 0.00 0.00 0.00 0.00 0.00 0.00 0.01 0.04 0.06 0.06 0.07 0.09 0.11 0.12 0.13 0.14 0.14 0.12 0.11 0.10 0.09 0.09 0.08 0.06 0.03 0.01
0.01 0.03 0.04 0.04 0.02 0.02 0.03 0.04 0.03 0.02 0.01 0.02 0.03 0.02 0.01 0.01 0.01 0.00 0.00 0.00 0.00 0.00 0.00 0.00 0.01 0.03 0.06 0.07 0.07 0.08 0.10 0.11 0.12 0.12 0.10 0.10 0.10 0.10 0.07 0.07 0.06 0.06 0.05 0.03
0.01 0.01 0.03 0.04 0.04 0.02 0.02 0.02 0.02 0.02 0.02 0.02 0.03 0.02 0.00 0.00 0.00 0.00 0.00 0.00 0.00 0.00 0.00 0.00 0.01 0.02 0.05 0.07 0.07 0.08 0.10 0.12 0.12 0.12 0.12 0.12 0.12 0.13 0.11 0.07 0.05 0.04 0.04 0.04
0.01 0.01 0.02 0.03 0.04 0.03 0.01 0.01 0.01 0.01 0.03 0.03 0.02 0.03 0.00 0.00 0.00 0.00 0.00 0.00 0.00 0.00 0.00 0.00 0.00 0.01 0.03 0.06 0.07 0.07 0.10 0.13 0.13 0.12 0.13 0.12 0.12 0.12 0.10 0.07 0.05 0.04 0.03 0.03
0.01 0.00 0.01 0.01 0.03 0.04 0.03 0.00 0.01 0.01 0.03 0.03 0.02 0.02 0.00 0.00 0.00 0.00 0.00 0.00 0.00 0.00 0.00 0.00 0.00 0.00 0.02 0.05 0.07 0.08 0.09 0.12 0.14 0.15 0.12 0.10 0.11 0.12 0.10 0.09 0.08 0.06 0.04 0.03
0.01 0.00 0.00 0.01 0.01 0.02 0.03 0.02 0.01 0.02 0.04 0.04 0.01 0.01 0.00 0.00 0.00 0.00 0.00 0.00 0.00 0.00 0.00 0.00 0.00 0.00 0.01 0.05 0.08 0.09 0.10 0.10 0.13 0.17 0.15 0.10 0.09 0.11 0.13 0.11 0.09 0.08 0.05 0.04
0.01 0.01 0.01 0.01 0.01 0.01 0.03 0.04 0.05 0.05 0.05 0.02 0.00 0.01 0.01 0.01 0.01 0.00 0.00 0.00 0.00 0.00 0.00 0.00 0.00 0.01 0.01 0.04 0.07 0.08 0.10 0.09 0.09 0.15 0.16 0.13 0.08 0.08 0.11 0.14 0.11 0.07 0.06 0.04
0.01 0.01 0.01 0.01 0.01 0.01 0.02 0.04 0.06 0.05 0.03 0.01 0.00 0.01 0.01 0.01 0.01 0.00 0.00 0.01 0.01 0.00 0.00 0.00 0.01 0.01 0.01 0.02 0.06 0.08 0.09 0.09 0.08 0.09 0.14 0.15 0.13 0.08 0.07 0.10 0.14 0.11 0.07 0.04
0.01 0.02 0.01 0.01 0.01 0.01 0.02 0.03 0.03 0.06 0.05 0.03 0.02 0.01 0.01 0.00 0.00 0.00 0.00 0.00 0.01 0.01 0.00 0.00 0.01 0.01 0.01 0.01 0.04 0.06 0.08 0.09 0.08 0.07 0.10 0.14 0.17 0.12 0.06 0.06 0.08 0.11 0.11 0.07
0.01 0.02 0.01 0.00 0.01 0.02 0.02 0.02 0.04 0.07 0.06 0.03 0.02 0.01 0.02 0.01 0.01 0.00 0.00 0.01 0.01 0.01 0.01 0.00 0.01 0.01 0.01 0.01 0.03 0.05 0.06 0.08 0.08 0.06 0.07 0.10 0.14 0.15 0.10 0.06 0.05 0.06 0.08 0.09
0.02 0.03 0.01 0.00 0.01 0.02 0.02 0.02 0.03 0.05 0.04 0.03 0.02 0.02 0.02 0.02 0.01 0.02 0.01 0.01 0.01 0.01 0.01 0.01 0.01 0.01 0.01 0.01 0.03 0.05 0.06 0.08 0.09 0.06 0.05 0.08 0.11 0.15 0.13 0.08 0.05 0.05 0.06 0.07
0.02 0.04 0.02 0.00 0.00 0.01 0.01 0.01 0.03 0.06 0.04 0.03 0.02 0.01 0.01 0.01 0.01 0.02 0.01 0.01 0.01 0.01 0.01 0.01 0.01 0.01 0.01 0.01 0.02 0.05 0.05 0.06 0.08 0.07 0.05 0.05 0.07 0.13 0.17 0.11 0.05 0.04 0.05 0.06
0.04 0.06 0.04 0.01 0.01 0.01 0.01 0.01 0.02 0.04 0.06 0.05 0.03 0.01 0.00 0.00 0.00 0.01 0.01 0.01 0.01 0.01 0.01 0.01 0.01 0.01 0.01 0.02 0.02 0.05 0.04 0.04 0.05 0.07 0.06 0.04 0.05 0.08 0.16 0.19 0.10 0.04 0.04 0.04
0.09 0.10 0.05 0.02 0.02 0.02 0.02 0.01 0.01 0.04 0.06 0.03 0.01 0.00 0.00 0.00 0.00 0.00 0.01 0.01 0.01 0.01 0.01 0.01 0.01 0.01 0.01 0.02 0.02 0.03 0.04 0.03 0.03 0.05 0.07 0.05 0.04 0.05 0.10 0.19 0.17 0.09 0.04 0.03
0.07 0.08 0.02 0.01 0.01 0.02 0.02 0.01 0.01 0.02 0.03 0.02 0.01 0.00 0.00 0.00 0.01 0.01 0.01 0.01 0.01 0.01 0.01 0.01 0.00 0.01 0.01 0.01 0.01 0.02 0.03 0.03 0.02 0.03 0.06 0.05 0.04 0.04 0.07 0.13 0.17 0.15 0.08 0.04
0.03 0.05 0.02 0.01 0.00 0.01 0.01 0.01 0.01 0.01 0.01 0.02 0.01 0.00 0.00 0.00 0.00 0.00 0.00 0.01 0.01 0.02 0.02 0.01 0.01 0.01 0.01 0.01 0.01 0.01 0.02 0.02 0.02 0.02 0.03 0.04 0.04 0.04 0.05 0.08 0.14 0.16 0.14 0.09
0.03 0.04 0.04 0.02 0.01 0.02 0.02 0.01 0.01 0.02 0.02 0.02 0.01 0.01 0.00 0.00 0.00 0.00 0.01 0.01 0.01 0.01 0.02 0.02 0.01 0.01 0.01 0.01 0.01 0.01 0.01 0.01 0.01 0.01 0.02 0.04 0.04 0.04 0.05 0.05 0.08 0.13 0.15 0.13
0.03 0.04 0.07 0.04 0.02 0.03 0.02 0.01 0.01 0.02 0.02 0.02 0.01 0.01 0.00 0.00 0.00 0.00 0.01 0.01 0.01 0.01 0.02 0.02 0.01 0.01 0.01 0.01 0.01 0.00 0.00 0.01 0.01 0.01 0.02 0.02 0.04 0.04 0.05 0.06 0.06 0.08 0.11 0.13
0.02 0.05 0.07 0.06 0.04 0.02 0.01 0.01 0.02 0.02 0.02 0.02 0.01 0.00 0.00 0.00 0.00 0.01 0.01 0.01 0.01 0.01 0.01 0.01 0.01 0.01 0.01 0.01 0.01 0.01 0.00 0.00 0.01 0.01 0.01 0.02 0.02 0.03 0.04 0.05 0.06 0.07 0.09 0.10
0.02 0.05 0.08 0.06 0.04 0.02 0.01 0.01 0.01 0.02 0.02 0.02 0.01 0.01 0.01 0.00 0.00 0.00 0.00 0.01 0.01 0.00 0.00 0.01 0.01 0.01 0.01 0.01 0.02 0.01 0.01 0.00 0.00 0.01 0.01 0.01 0.02 0.02 0.03 0.04 0.04 0.05 0.07 0.08
0.02 0.05 0.06 0.05 0.04 0.02 0.01 0.01 0.01 0.02 0.03 0.02 0.01 0.01 0.01 0.01 0.01 0.01 0.01 0.01 0.01 0.00 0.00 0.00 0.01 0.01 0.01 0.01 0.02 0.02 0.01 0.01 0.00 0.00 0.01 0.01 0.01 0.02 0.02 0.03 0.04 0.05 0.06 0.06
0.01 0.02 0.02 0.03 0.04 0.02 0.01 0.01 0.02 0.02 0.02 0.01 0.01 0.01 0.01 0.01 0.01 0.01 0.02 0.02 0.02 0.01 0.00 0.01 0.01 0.01 0.01 0.01 0.01 0.02 0.02 0.01 0.01 0.01 0.01 0.01 0.02 0.02 0.02 0.04 0.04 0.05 0.06 0.06
0.01 0.02 0.02 0.02 0.02 0.01 0.01 0.01 0.01 0.01 0.01 0.01 0.00 0.00 0.01 0.01 0.01 0.02 0.02 0.03 0.02 0.01 0.01 0.01 0.01 0.01 0.01 0.02 0.02 0.02 0.02 0.01 0.01 0.01 0.02 0.02 0.02 0.03 0.03 0.03 0.03 0.04 0.05 0.07
0.00 0.00 0.01 0.01 0.01 0.01 0.00 0.00 0.01 0.01 0.01 0.01 0.00 0.00 0.00 0.01 0.01 0.02 0.02 0.03 0.03 0.01 0.01 0.01 0.01 0.01 0.02 0.02 0.02 0.02 0.02 0.02 0.02 0.02 0.02 0.02 0.03 0.04 0.04 0.03 0.03 0.03 0.04 0.05
0.00 0.01 0.01 0.01 0.01 0.01 0.00 0.00 0.00 0.00 0.01 0.00 0.00 0.00 0.00 0.01 0.01 0.02 0.03 0.04 0.04 0.02 0.01 0.01 0.01 0.01 0.03 0.03 0.03 0.03 0.03 0.03 0.02 0.03 0.03 0.03 0.04 0.04 0.05 0.05 0.04 0.03 0.02 0.02
0.00 0.01 0.01 0.01 0.01 0.01 0.00 0.00 0.00 0.01 0.01 0.00 0.00 0.00 0.00 0.00 0.01 0.01 0.02 0.03 0.04 0.02 0.01 0.01 0.02 0.02 0.03 0.04 0.04 0.04 0.04 0.03 0.03 0.03 0.04 0.05 0.05 0.05 0.05 0.06 0.06 0.06 0.05 0.03
MSLP
1016.54 1016.31 1016.09 1015.90 1015.75 1015.63 1015.52 1015.39 1015.22 1014.96 1014.62 1014.19 1013.70 1013.15 1012.60 1012.08 1011.60 1011.17 1010.81 1010.48 1010.16 1009.84 1009.50 1009.12 1008.70 1008.28 1007.87 1007.49 1007.16 1006.92 1006.75 1006.67 1006.67 1006.75 1006.90 1007.13 1007.45 1007.86 1008.36 1008.97 1009.66 1010.42 1011.22 1012.03
1016.30 1016.05 1015.84 1015.69 1015.59 1015.54 1015.50 1015.43 1015.28 1015.03 1014.65 1014.16 1013.57 1012.92 1012.27 1011.67 1011.14 1010.71 1010.36 1010.09 1009.85 1009.61 1009.34 1009.00 1008.61 1008.18 1007.72 1007.28 1006.88 1006.55 1006.32 1006.18 1006.15 1006.21 1006.36 1006.59 1006.92 1007.34 1007.85 1008.46 1009.14 1009.90 1010.70 1011.52
1015.98 1015.71 1015.52 1015.40 1015.37 1015.40 1015.43 1015.41 1015.29 1015.03 1014.60 1014.02 1013.32 1012.56 1011.81 1011.12 1010.55 1010.12 1009.83 1009.63 1009.50 1009.37 1009.18 1008.92 1008.55 1008.10 1007.60 1007.07 1006.57 1006.14 1005.81 1005.60 1005.51 1005.54 1005.68 1005.92 1006.27 1006.71 1007.25 1007.87 1008.57 1009.34 1010.14 1010.96
1015.58 1015.31 1015.13 1015.06 1015.10 1015.19 1015.30 1015.33 1015.23 1014.94 1014.45 1013.78 1012.96 1012.08 1011.21 1010.45 1009.84 1009.43 1009.19 1009.10 1009.09 1009.09 1009.02 1008.84 1008.52 1008.06 1007.51 1006.89 1006.29 1005.73 1005.29 1004.97 1004.81 1004.79 1004.91 1005.17 1005.53 1006.01 1006.57 1007.22 1007.95 1008.72 1009.53 1010.35
1015.17 1014.89 1014.73 1014.71 1014.80 1014.97 1015.13 1015.20 1015.10 1014.78 1014.22 1013.44 1012.51 1011.50 1010.52 1009.69 1009.05 1008.65 1008.49 1008.50 1008.62 1008.76 1008.82 1008.74 1008.47 1008.03 1007.44 1006.75 1006.04 1005.36 1004.80 1004.38 1004.12 1004.05 1004.14 1004.38 1004.76 1005.25 1005.84 1006.52 1007.26 1008.05 1008.86 1009.68
1014.77 1014.50 1014.37 1014.39 1014.53 1014.75 1014.95 1015.05 1014.95 1014.59 1013.96 1013.08 1012.02 1010.90 1009.82 1008.91 1008.25 1007.87 1007.76 1007.88 1008.12 1008.39 1008.57 1008.59 1008.40 1007.98 1007.38 1006.64 1005.84 1005.06 1004.38 1003.86 1003.51 1003.36 1003.40 1003.61 1003.98 1004.47 1005.08 1005.77 1006.52 1007.31 1008.13 1008.95
1014.46 1014.20 1014.09 1014.14 1014.33 1014.59 1014.82 1014.93 1014.81 1014.41 1013.70 1012.73 1011.58 1010.36 1009.19 1008.22 1007.52 1007.14 1007.08 1007.26 1007.60 1007.98 1008.27 1008.38 1008.26 1007.89 1007.29 1006.53 1005.68 1004.83 1004.06 1003.44 1003.01 1002.77 1002.74 1002.90 1003.23 1003.70 1004.29 1004.97 1005.72 1006.51 1007.33 1008.14
1014.23 1014.00 1013.92 1014.00 1014.22 1014.50 1014.75 1014.85 1014.71 1014.27 1013.50 1012.46 1011.23 1009.93 1008.70 1007.67 1006.94 1006.55 1006.50 1006.72 1007.10 1007.55 1007.91 1008.10 1008.04 1007.72 1007.15 1006.40 1005.54 1004.65 1003.83 1003.14 1002.63 1002.31 1002.19 1002.27 1002.53 1002.94 1003.48 1004.13 1004.86 1005.64 1006.46 1007.27
1014.10 1013.89 1013.83 1013.94 1014.18 1014.47 1014.71 1014.80 1014.64 1014.16 1013.36 1012.27 1010.99 1009.65 1008.37 1007.31 1006.54 1006.13 1006.06 1006.26 1006.66 1007.11 1007.50 1007.73 1007.72 1007.45 1006.93 1006.22 1005.39 1004.51 1003.67 1002.94 1002.36 1001.96 1001.75 1001.73 1001.88 1002.20 1002.67 1003.26 1003.94 1004.71 1005.52 1006.34
1014.02 1013.82 1013.79 1013.91 1014.14 1014.42 1014.65 1014.71 1014.52 1014.02 1013.19 1012.10 1010.81 1009.47 1008.18 1007.11 1006.32 1005.87 1005.76 1005.92 1006.27 1006.68 1007.06 1007.28 1007.30 1007.07 1006.62 1005.97 1005.20 1004.36 1003.55 1002.80 1002.18 1001.70 1001.39 1001.25 1001.28 1001.48 1001.84 1002.35 1002.98 1003.71 1004.52 1005.37
1013.91 1013.74 1013.70 1013.82 1014.03 1014.28 1014.46 1014.49 1014.26 1013.74 1012.92 1011.84 1010.59 1009.29 1008.05 1007.00 1006.22 1005.75 1005.58 1005.67 1005.94 1006.27 1006.59 1006.78 1006.79 1006.60 1006.20 1005.64 1004.95 1004.19 1003.43 1002.70 1002.05 1001.51 1001.10 1000.83 1000.72 1000.78 1001.02 1001.42 1001.98 1002.68 1003.49 1004.36
1013.73 1013.55 1013.51 1013.59 1013.76 1013.94 1014.05 1014.01 1013.74 1013.20 1012.40 1011.38 1010.21 1009.00 1007.85 1006.87 1006.13 1005.66 1005.46 1005.48 1005.65 1005.89 1006.11 1006.24 1006.23 1006.06 1005.72 1005.24 1004.65 1003.99 1003.30 1002.61 1001.95 1001.36 1000.85 1000.46 1000.20 1000.11 1000.20 1000.49 1000.98 1001.64 1002.44 1003.34
1013.42 1013.23 1013.15 1013.17 1013.26 1013.34 1013.35 1013.22 1012.88 1012.33 1011.56 1010.62 1009.56 1008.49 1007.49 1006.63 1005.98 1005.55 1005.34 1005.30 1005.38 1005.52 1005.65 1005.70 1005.66 1005.49 1005.20 1004.80 1004.31 1003.75 1003.14 1002.50 1001.85 1001.21 1000.62 1000.11 999.71 999.47 999.42 999.60 1000.00 1000.61 1001.41 1002.34
1012.97 1012.75 1012.62 1012.55 1012.52 1012.47 1012.34 1012.10 1011.69 1011.11 1010.37 1009.52 1008.62 1007.72 1006.90 1006.22 1005.70 1005.36 1005.17 1005.11 1005.13 1005.18 1005.21 1005.19 1005.10 1004.92 1004.67 1004.34 1003.94 1003.47 1002.94 1002.36 1001.72 1001.06 1000.40 999.78 999.25 998.87 998.69 998.75 999.07 999.64 1000.42 1001.38
1012.42 1012.16 1011.95 1011.77 1011.59 1011.38 1011.10 1010.71 1010.22 1009.60 1008.91 1008.16 1007.41 1006.72 1006.11 1005.64 1005.29 1005.07 1004.96 1004.90 1004.89 1004.86 1004.82 1004.72 1004.58 1004.39 1004.15 1003.87 1003.54 1003.16 1002.70 1002.16 1001.55 1000.87 1000.16 999.45 998.82 998.32 998.03 997.98 998.22 998.74 999.51 1000.48
1011.82 1011.51 1011.21 1010.90 1010.56 1010.18 1009.73 1009.20 1008.61 1007.96 1007.30 1006.66 1006.08 1005.59 1005.22 1004.96 1004.81 1004.73 1004.70 1004.69 1004.65 1004.58 1004.46 1004.30 1004.10 1003.88 1003.65 1003.40 1003.12 1002.79 1002.39 1001.90 1001.31 1000.62 999.87 999.11 998.40 997.81 997.42 997.30 997.46 997.93 998.68 999.64
1011.22 1010.85 1010.46 1010.03 1009.54 1008.99 1008.38 1007.73 1007.05 1006.38 1005.75 1005.22 1004.80 1004.51 1004.34 1004.30 1004.33 1004.39 1004.46 1004.48 1004.44 1004.33 1004.15 1003.92 1003.66 1003.40 1003.15 1002.90 1002.65 1002.36 1002.00 1001.54 1000.97 1000.29 999.53 998.74 997.97 997.33 996.88 996.69 996.80 997.22 997.93 998.88
1010.63 1010.22 1009.76 1009.22 1008.61 1007.93 1007.20 1006.45 1005.71 1005.04 1004.46 1004.03 1003.75 1003.63 1003.65 1003.77 1003.95 1004.13 1004.26 1004.30 1004.25 1004.09 1003.85 1003.55 1003.23 1002.91 1002.63 1002.37 1002.11 1001.84 1001.51 1001.07 1000.53 999.86 999.10 998.30 997.52 996.85 996.37 996.14 996.21 996.59 997.27 998.20
1010.04 1009.61 1009.09 1008.50 1007.82 1007.07 1006.28 1005.48 1004.74 1004.09 1003.58 1003.24 1003.07 1003.08 1003.23 1003.47 1003.73 1003.96 1004.11 1004.15 1004.05 1003.83 1003.51 1003.14 1002.75 1002.39 1002.06 1001.77 1001.51 1001.24 1000.91 1000.50 999.97 999.33 998.58 997.79 997.02 996.35 995.86 995.62 995.67 996.03 996.67 997.57
1009.38 1008.95 1008.43 1007.83 1007.14 1006.39 1005.61 1004.85 1004.15 1003.57 1003.14 1002.89 1002.82 1002.91 1003.12 1003.40 1003.68 1003.90 1004.01 1003.98 1003.81 1003.51 1003.11 1002.66 1002.21 1001.79 1001.43 1001.11 1000.84 1000.56 1000.24 999.83 999.32 998.70 997.98 997.22 996.47 995.82 995.35 995.11 995.15 995.49 996.12 996.99
1008.58 1008.18 1007.70 1007.15 1006.53 1005.86 1005.17 1004.51 1003.92 1003.44 1003.11 1002.94 1002.93 1003.05 1003.26 1003.51 1003.73 1003.87 1003.89 1003.75 1003.48 1003.08 1002.60 1002.08 1001.58 1001.12 1000.73 1000.40 1000.12 999.84 999.52 999.12 998.62 998.02 997.32 996.59 995.87 995.25 994.80 994.58 994.63 994.97 995.59 996.44
1007.59 1007.25 1006.86 1006.41 1005.92 1005.39 1004.87 1004.37 1003.93 1003.59 1003.37 1003.27 1003.29 1003.39 1003.55 1003.70 1003.80 1003.80 1003.67 1003.40 1003.00 1002.51 1001.95 1001.39 1000.86 1000.39 1000.00 999.67 999.39 999.11 998.80 998.40 997.91 997.31 996.63 995.92 995.23 994.64 994.22 994.02 994.10 994.45 995.06 995.92
1006.41 1006.15 1005.88 1005.58 1005.26 1004.94 1004.62 1004.32 1004.06 1003.87 1003.75 1003.71 1003.73 1003.78 1003.83 1003.84 1003.77 1003.59 1003.29 1002.87 1002.35 1001.77 1001.16 1000.58 1000.05 999.61 999.25 998.95 998.69 998.43 998.12 997.72 997.22 996.62 995.94 995.24 994.57 994.00 993.61 993.44 993.54 993.92 994.56 995.43
1005.11 1004.95 1004.81 1004.69 1004.57 1004.47 1004.37 1004.28 1004.21 1004.16 1004.13 1004.12 1004.10 1004.06 1003.97 1003.81 1003.55 1003.18 1002.70 1002.14 1001.52 1000.88 1000.25 999.68 999.20 998.81 998.50 998.26 998.04 997.80 997.49 997.09 996.57 995.95 995.26 994.55 993.89 993.34 992.97 992.84 992.98 993.39 994.07 994.98
1003.81 1003.76 1003.77 1003.82 1003.91 1004.01 1004.12 1004.22 1004.31 1004.38 1004.40 1004.39 1004.31 1004.16 1003.91 1003.57 1003.11 1002.56 1001.93 1001.25 1000.55 999.87 999.26 998.74 998.32 998.01 997.78 997.60 997.42 997.20 996.90 996.48 995.94 995.29 994.58 993.86 993.19 992.66 992.33 992.24 992.43 992.90 993.64 994.62
1002.68 1002.74 1002.89 1003.10 1003.36 1003.64 1003.92 1004.17 1004.37 1004.50 1004.54 1004.49 1004.33 1004.05 1003.65 1003.12 1002.50 1001.79 1001.03 1000.25 999.51 998.83 998.25 997.79 997.45 997.21 997.06 996.93 996.79 996.59 996.27 995.83 995.26 994.59 993.86 993.13 992.47 991.97 991.68 991.66 991.92 992.48 993.30 994.36
Thickness
5515 5512 5515 5514 5508 5505 5501 5499 5504 5512 5514 5507 5512 5521 5533 5536 5539 5546 5554 5560 5567 5576 5584 5589 5595 5602 5610 5618 5625 5632 5638 5644 5649 5652 5654 5655 5657 5659 5659 5660 5661 5660 5659 5658
5509 5509 5511 5504 5497 5491 5488 5487 5496 5504 5503 5498 5505 5515 5528 5533 5535 5540 5546 5552 5559 5567 5574 5580 5587 5594 5602 5610 5618 5625 5631 5639 5644 5648 5651 5652 5653 5653 5654 5655 5655 5655 5655 5655
5504 5509 5500 5491 5488 5484 5485 5483 5486 5487 5490 5492 5492 5511 5527 5534 5534 5536 5541 5546 5553 5559 5566 5573 5579 5587 5595 5603 5611 5619 5626 5633 5639 5643 5644 5645 5645 5645 5647 5649 5651 5652 5652 5652
5498 5497 5488 5484 5482 5479 5482 5484 5477 5476 5473 5484 5485 5495 5525 5529 5528 5530 5535 5540 5547 5553 5559 5565 5572 5579 5588 5596 5604 5612 5619 5628 5634 5637 5639 5642 5644 5645 5648 5649 5649 5648 5648 5649
5495 5488 5481 5479 5480 5474 5475 5474 5470 5469 5467 5468 5481 5477 5514 5522 5521 5527 5531 5535 5540 5546 5552 5558 5565 5572 5582 5590 5596 5604 5612 5620 5628 5633 5636 5639 5641 5643 5644 5644 5645 5645 5645 5645
5486 5482 5474 5474 5472 5467 5465 5463 5466 5466 5461 5461 5483 5479 5504 5517 5517 5521 5525 5529 5533 5538 5544 5551 5557 5563 5572 5581 5589 5596 5603 5612 5621 5627 5633 5635 5638 5639 5640 5641 5642 5642 5642 5642
5481 5479 5471 5465 5462 5462 5456 5450 5455 5458 5459 5473 5486 5480 5499 5509 5510 5511 5514 5518 5524 5530 5537 5544 5549 5555 5562 5571 5581 5590 5598 5607 5615 5621 5627 5632 5636 5637 5638 5640 5640 5640 5641 5642
5465 5476 5469 5459 5455 5454 5451 5444 5443 5449 5466 5479 5476 5479 5500 5502 5501 5502 5503 5507 5513 5520 5528 5536 5542 5548 5555 5563 5573 5582 5592 5602 5610 5616 5622 5628 5631 5633 5636 5637 5639 5640 5641 5643
5454 5462 5461 5454 5450 5447 5443 5442 5443 5435 5443 5446 5469 5485 5493 5493 5493 5494 5496 5499 5504 5511 5518 5527 5534 5540 5549 5557 5565 5575 5586 5596 5605 5612 5618 5623 5626 5629 5633 5634 5635 5637 5639 5639
5441 5440 5453 5448 5441 5440 5440 5438 5429 5425 5430 5447 5470 5481 5486 5487 5484 5487 5489 5492 5496 5502 5510 5519 5527 5534 5542 5550 5559 5567 5579 5589 5599 5607 5613 5619 5623 5626 5629 5631 5633 5635 5636 5636
5429 5424 5439 5437 5436 5439 5429 5425 5422 5425 5425 5433 5452 5476 5481 5478 5477 5478 5481 5485 5489 5494 5501 5510 5518 5526 5534 5543 5551 5561 5571 5582 5590 5600 5608 5613 5619 5622 5624 5628 5631 5632 5633 5633
5423 5418 5426 5436 5438 5430 5427 5425 5420 5414 5418 5422 5432 5462 5477 5473 5471 5470 5473 5476 5481 5486 5493 5500 5509 5517 5526 5535 5544 5554 5564 5574 5583 5593 5601 5607 5614 5618 5621 5624 5628 5629 5630 5630
5412 5404 5411 5430 5426 5415 5409 5412 5409 5407 5409 5419 5426 5455 5472 5467 5464 5463 5465 5469 5473 5478 5485 5492 5500 5508 5517 5526 5536 5546 5557 5566 5576 5584 5593 5601 5608 5613 5618 5621 5624 5626 5627 5627
5410 5402 5406 5418 5427 5414 5404 5404 5401 5394 5401 5415 5431 5448 5462 5459 5456 5457 5459 5462 5466 5471 5476 5483 5490 5499 5508 5517 5528 5538 5548 5558 5568 5576 5585 5595 5603 5609 5614 5617 5619 5621 5623 5623
5399 5401 5404 5409 5412 5407 5405 5406 5404 5397 5401 5405 5427 5437 5449 5450 5448 5450 5451 5454 5457 5462 5468 5474 5481 5490 5499 5508 5519 5530 5540 5551 5560 5568 5578 5588 5597 5603 5608 5611 5614 5615 5617 5619
5391 5391 5396 5401 5408 5404 5403 5409 5409 5408 5409 5410 5417 5428 5440 5440 5442 5444 5444 5447 5450 5455 5460 5466 5473 5481 5490 5500 5510 5521 5532 5542 5551 5560 5570 5580 5588 5595 5601 5606 5609 5610 5612 5613
5384 5379 5380 5395 5402 5395 5403 5418 5415 5414 5416 5414 5415 5427 5432 5432 5433 5435 5437 5440 5443 5448 5453 5459 5466 5474 5482 5491 5500 5511 5523 5533 5543 5554 5563 5572 5580 5587 5594 5599 5603 5606 5608 5609
5378 5373 5373 5381 5382 5379 5421 5419 5413 5411 5413 5412 5412 5417 5420 5422 5425 5427 5430 5433 5437 5441 5446 5452 5459 5467 5475 5483 5493 5502 5513 5525 5536 5546 5556 5565 5572 5580 5586 5592 5597 5601 5603 5604
5381 5370 5369 5372 5377 5396 5415 5412 5404 5400 5407 5407 5406 5411 5414 5415 5418 5424 5426 5426 5429 5434 5439 5445 5452 5459 5467 5477 5486 5495 5506 5518 5529 5539 5549 5558 5565 5572 5579 5585 5590 5595 5598 5600
5374 5366 5364 5366 5367 5383 5412 5406 5398 5391 5397 5404 5401 5403 5405 5406 5409 5422 5421 5419 5422 5426 5432 5438 5445 5452 5460 5469 5478 5488 5499 5511 5522 5533 5542 5551 5558 5566 5572 5579 5583 5587 5591 5594
5364 5359 5360 5364 5365 5386 5402 5393 5386 5381 5394 5395 5394 5395 5396 5398 5402 5409 5410 5413 5416 5420 5425 5431 5438 5446 5454 5462 5471 5481 5492 5504 5515 5524 5534 5543 5551 5559 5565 5570 5575 5579 5583 5586
5370 5366 5361 5362 5361 5379 5392 5380 5380 5386 5388 5385 5385 5386 5387 5390 5394 5397 5401 5405 5409 5414 5420 5426 5432 5441 5449 5457 5465 5476 5487 5498 5506 5516 5526 5536 5544 5551 5557 5562 5567 5571 5574 5578
5370 5374 5374 5371 5382 5389 5381 5378 5378 5377 5376 5377 5377 5378 5378 5381 5386 5390 5393 5398 5403 5408 5414 5419 5426 5435 5443 5451 5459 5470 5481 5490 5499 5509 5518 5527 5535 5543 5549 5555 5560 5564 5568 5572
5369 5364 5360 5363 5377 5377 5372 5371 5369 5367 5367 5368 5368 5369 5370 5372 5377 5381 5386 5390 5395 5401 5406 5412 5420 5429 5438 5446 5454 5464 5474 5483 5492 5502 5512 5520 5527 5535 5542 5548 5553 5558 5563 5568
5369 5355 5354 5359 5368 5367 5368 5364 5361 5360 5359 5358 5359 5360 5361 5364 5369 5373 5378 5383 5388 5394 5400 5406 5414 5423 5432 5439 5448 5458 5469 5478 5487 5495 5505 5512 5520 5528 5535 5541 5547 5554 5561 5566
5361 5354 5353 5360 5365 5359 5361 5358 5354 5351 5350 5350 5350 5353 5355 5356 5361 5366 5371 5376 5381 5387 5393 5401 5410 5419 5427 5435 5444 5454 5463 5472 5482 5490 5499 5507 5514 5521 5527 5533 5537 5543 5550 5554